TimeCDT,TemperatureF,Dew PointF,Humidity,Sea Level PressureIn,VisibilityMPH,Wind Direction,Wind SpeedMPH,Gust SpeedMPH,PrecipitationIn,Events,Conditions,WindDirDegrees,DateUTC
12:52 AM,54.0,39.0,57,30.18,10.0,NNE,4.6,-,N/A,,Clear,20,2012-09-24 05:52:00
1:52 AM,54.0,39.0,57,30.15,10.0,NNE,3.5,-,N/A,,Clear,20,2012-09-24 06:52:00
2:52 AM,53.1,39.0,59,30.15,10.0,North,4.6,-,N/A,,Clear,10,2012-09-24 07:52:00
3:52 AM,52.0,39.9,63,30.12,10.0,North,3.5,-,N/A,,Clear,10,2012-09-24 08:52:00
4:52 AM,52.0,39.0,61,30.11,10.0,North,3.5,-,N/A,,Clear,10,2012-09-24 09:52:00
5:52 AM,51.1,39.9,66,30.10,10.0,NNE,6.9,-,N/A,,Clear,30,2012-09-24 10:52:00
6:52 AM,48.9,41.0,74,30.09,10.0,NE,4.6,-,N/A,,Clear,40,2012-09-24 11:52:00
7:52 AM,48.9,41.0,74,30.08,10.0,NE,4.6,-,N/A,,Clear,40,2012-09-24 12:52:00
8:52 AM,53.1,43.0,69,30.06,10.0,ENE,5.8,-,N/A,,Clear,70,2012-09-24 13:52:00
9:52 AM,57.9,46.0,65,30.03,10.0,ENE,4.6,-,N/A,,Clear,60,2012-09-24 14:52:00
10:52 AM,66.9,50.0,54,30.00,10.0,SSE,11.5,-,N/A,,Clear,160,2012-09-24 15:52:00
11:52 AM,69.1,51.1,53,29.97,10.0,South,9.2,-,N/A,,Clear,180,2012-09-24 16:52:00
12:52 PM,72.0,52.0,49,29.95,10.0,South,9.2,-,N/A,,Clear,190,2012-09-24 17:52:00
1:52 PM,73.9,54.0,50,29.91,10.0,South,5.8,-,N/A,,Clear,180,2012-09-24 18:52:00
2:52 PM,75.9,55.0,48,29.87,10.0,SE,5.8,-,N/A,,Clear,140,2012-09-24 19:52:00
3:52 PM,78.1,55.0,45,29.84,10.0,ESE,3.5,-,N/A,,Clear,120,2012-09-24 20:52:00
4:52 PM,77.0,57.9,52,29.83,10.0,NE,3.5,-,N/A,,Clear,50,2012-09-24 21:52:00
5:52 PM,75.0,59.0,57,29.83,10.0,NNE,6.9,-,N/A,,Clear,30,2012-09-24 22:52:00
6:52 PM,73.0,59.0,61,29.82,10.0,North,3.5,-,N/A,,Clear,10,2012-09-24 23:52:00
7:52 PM,70.0,57.9,65,29.82,10.0,North,5.8,-,N/A,,Clear,10,2012-09-25 00:52:00
8:52 PM,66.0,57.0,73,29.81,10.0,NE,5.8,-,N/A,,Clear,50,2012-09-25 01:52:00
9:52 PM,66.9,55.9,68,29.79,10.0,ENE,8.1,-,N/A,,Clear,60,2012-09-25 02:52:00
10:52 PM,66.0,55.9,70,29.78,10.0,NE,3.5,-,N/A,,Clear,50,2012-09-25 03:52:00
11:52 PM,66.0,57.0,73,29.77,10.0,NNE,5.8,-,N/A,,Clear,30,2012-09-25 04:52:00